Location: Asheville, NC
(35.6000°N, 82.5500°W)
Time: 18:47:27
(UTC-05:00)

XW-2B - Pass Details

Date: 14 February 2018
Orbit: 509 x 532 km, 97.5° (Epoch: 16 February)

Event Time Altitude Azimuth Distance (km) Brightness Sun altitude
Rises 18:38:22 0° 198° (SSW) 2,621 ? -6.2°
Reaches altitude 10° 18:40:52 10° 215° (SW) 1,735 ? -6.7°
Maximum altitude 18:43:42 20° 264° (W) 1,215 ? -7.3°
Drops below altitude 10° 18:46:32 10° 314° (NW) 1,737 ? -7.8°
Sets 18:49:03 0° 331° (NNW) 2,625 ? -8.3°
